Temperature
18 19 20 20 20 20 19 17 17 18 18 19 19 19 20 20 20 20 19 19 19 19 19 19 18 18 18 18 18 18 18 17 17 17 17 17 16 16 16 16 16 15 15 15
19 20 20 20 20 20 20 19 18 19 19 19 20 20 20 20 20 19 19 19 19 19 19 19 19 18 18 18 18 18 18 17 17 17 17 17 16 16 16 16 16 15 15 15
17 19 19 19 20 20 20 19 19 19 19 19 18 19 19 20 20 20 20 19 19 19 19 19 19 19 18 18 18 18 18 17 17 17 17 17 16 16 16 16 16 15 15 15
16 18 18 18 19 20 20 19 19 19 19 19 20 20 21 21 21 20 20 20 19 19 19 19 19 19 19 18 18 18 18 17 17 17 17 17 16 16 16 16 15 15 15 15
15 16 17 19 20 20 19 19 19 19 19 20 20 20 19 21 21 21 20 20 20 20 19 19 19 19 18 18 18 18 17 17 17 17 17 17 16 16 16 15 15 15 15 15
15 16 17 18 20 21 19 18 19 19 19 19 19 16 18 20 20 20 20 20 20 20 19 19 19 18 18 18 18 18 18 17 17 17 17 16 16 16 16 15 15 15 15 14
15 16 16 18 19 20 19 18 20 20 20 20 19 19 20 21 20 20 20 20 20 19 19 19 19 18 18 18 18 18 18 17 17 17 16 16 16 16 15 15 15 15 14 14
14 15 16 18 19 18 18 20 20 20 20 20 21 21 20 20 20 20 20 20 19 19 19 19 18 18 18 18 18 18 17 17 17 16 16 16 16 15 15 15 15 14 14 14
15 16 17 18 19 20 20 20 20 20 20 21 20 20 20 20 20 20 19 19 19 19 18 18 18 18 18 18 18 17 17 17 17 16 16 16 16 15 15 15 14 14 14 14
14 15 17 18 19 19 19 19 20 20 20 20 20 20 19 19 19 19 19 19 18 18 18 18 18 18 18 18 17 17 17 16 16 16 16 15 15 15 15 15 14 14 14 14
14 15 16 17 18 18 19 19 19 19 20 20 20 19 19 19 19 18 18 18 18 18 18 17 17 17 17 17 17 17 16 16 16 15 15 15 15 15 15 14 14 14 14 14
14 15 15 16 17 18 18 19 19 19 19 19 19 19 19 18 18 18 18 18 18 17 17 17 17 17 16 16 16 16 16 15 15 15 15 15 14 14 14 14 14 14 13 13
16 17 17 17 17 17 18 18 18 18 18 18 18 18 18 18 18 18 17 17 17 17 17 17 17 16 16 16 16 16 15 15 15 14 14 14 14 14 14 14 13 13 13 13
16 16 16 16 16 17 17 17 18 18 18 18 18 18 18 17 17 17 17 17 17 17 16 16 16 16 16 15 15 15 15 15 14 14 14 14 13 13 13 13 13 13 13 13
16 16 16 16 16 16 17 17 17 17 17 17 17 17 17 17 17 17 16 16 16 16 16 16 15 15 15 15 15 15 14 14 14 14 13 13 13 13 13 12 12 12 12 12
15 15 15 15 15 16 16 16 16 16 16 16 16 16 16 16 16 16 16 16 16 15 15 15 15 15 14 14 14 14 14 14 13 13 13 13 12 12 12 12 12 12 12 12
14 14 14 14 15 15 15 15 15 15 15 15 15 16 16 16 15 15 15 15 15 15 15 15 14 14 14 14 14 14 13 13 13 13 12 12 12 12 12 12 11 11 11 11
14 14 14 14 14 14 14 14 14 14 15 15 15 15 15 15 15 15 15 15 15 15 14 14 14 14 13 13 13 13 13 13 12 12 12 12 11 11 11 11 11 11 11 10
13 13 13 13 14 14 14 13 14 14 14 14 14 14 14 14 15 15 14 14 14 14 14 14 13 13 13 13 13 13 12 12 12 12 11 11 11 11 11 11 11 10 10 10
12 13 13 13 13 13 13 13 13 13 13 13 14 14 14 14 14 14 14 14 14 14 14 13 13 13 13 12 12 12 12 12 11 11 11 11 11 10 10 10 10 10 9 9
12 12 12 12 12 12 12 12 12 12 12 13 13 13 13 13 13 13 13 13 13 13 13 13 13 13 12 12 12 12 11 11 11 11 10 10 10 10 10 10 9 9 9 9
11 11 11 11 11 11 11 11 11 11 12 12 12 12 12 12 12 12 12 12 12 12 12 12 12 12 12 11 11 11 11 11 10 10 10 10 9 9 9 9 9 9 8 8
10 11 11 10 10 10 10 10 11 11 11 11 11 11 11 11 11 11 11 11 11 11 11 11 11 11 11 11 11 11 10 10 10 9 9 9 9 9 8 8 8 8 8 7
10 10 10 10 10 10 10 10 10 10 10 10 10 10 10 10 10 11 11 10 10 11 11 11 11 10 10 10 10 10 10 9 9 9 9 8 8 8 8 8 8 7 7 7
9 9 9 9 9 9 9 9 9 9 9 10 10 10 10 10 10 10 10 10 10 10 10 10 10 10 9 9 9 9 9 9 8 8 8 8 8 8 7 7 7 7 6 6
8 8 8 8 8 8 8 8 8 8 9 9 9 9 9 9 9 9 9 9 9 9 9 9 9 9 9 8 8 8 8 8 8 7 7 7 7 7 7 7 6 6 6 6
8 8 8 8 8 8 8 8 8 8 8 8 8 8 8 8 8 8 8 8 8 8 8 8 8 8 8 8 8 7 7 7 7 7 7 7 6 6 6 6 6 6 6 5
Wind_Speed
7 6 5 5 6 6 6 8 7 7 7 8 8 8 8 8 8 7 7 8 10 10 9 9 9 9 9 9 9 9 8 8 8 7 7 6 6 6 5 6 6 6 5 4
3 4 4 5 7 7 7 7 7 5 6 7 6 4 5 7 8 8 8 10 10 10 9 9 10 10 9 9 8 8 9 9 7 7 7 7 6 6 6 5 5 5 5 5
3 2 1 5 8 8 6 6 8 8 9 5 4 7 9 9 9 10 10 9 10 10 10 10 10 10 10 9 8 8 8 7 7 7 7 7 7 6 6 6 5 5 5 5
2 2 5 8 6 7 8 7 7 7 7 8 9 8 7 8 10 10 10 10 10 9 9 9 8 9 9 8 8 9 8 7 7 7 7 7 7 7 6 5 5 5 5 5
4 4 5 6 4 6 6 5 6 7 7 6 5 3 0 4 8 10 11 10 9 9 9 8 8 9 8 8 8 9 9 8 8 8 8 8 8 8 6 5 5 5 5 6
4 4 6 8 5 3 5 4 6 7 7 6 6 4 5 5 6 7 7 7 7 7 7 7 7 8 9 9 9 10 10 10 8 8 9 9 9 7 5 6 6 6 5 5
5 4 6 7 4 3 5 8 5 6 8 8 7 8 6 6 6 6 6 6 6 7 7 8 8 8 9 9 10 10 9 8 8 8 8 8 7 6 6 6 5 5 5 4
4 4 7 5 2 6 7 4 4 5 6 6 5 5 5 6 6 6 6 5 6 6 6 6 7 9 8 9 8 7 8 8 8 7 7 7 6 6 6 6 6 5 4 3
6 6 5 2 3 3 3 3 2 3 4 6 7 6 6 5 6 6 6 6 5 6 6 4 6 8 9 7 6 7 8 8 7 6 6 6 7 7 5 5 5 5 4 4
1 4 4 3 1 1 1 2 2 3 4 7 6 7 7 6 5 5 5 5 5 6 6 4 5 6 6 6 7 8 8 7 7 6 6 5 5 6 6 6 5 5 5 5
2 3 3 4 2 1 1 2 3 2 3 7 8 7 6 6 5 5 4 4 5 6 6 5 5 5 5 6 7 7 7 7 6 6 6 6 5 5 6 6 7 7 6 6
5 5 3 5 5 2 1 1 2 3 2 3 6 7 6 5 5 4 4 4 4 5 5 4 5 4 5 6 7 8 6 6 5 5 5 5 4 2 2 3 5 7 7 6
5 4 4 4 3 2 1 1 2 4 4 4 4 6 6 5 4 4 4 4 5 5 5 4 5 5 5 6 7 7 7 6 5 5 5 5 5 5 3 1 1 4 6 7
2 1 1 2 2 2 1 2 4 4 3 4 4 5 5 5 4 4 4 4 4 5 4 4 4 4 4 5 6 6 6 6 6 5 5 5 5 5 5 4 2 2 3 6
1 1 2 1 1 2 3 4 5 4 3 3 3 5 5 5 5 4 4 4 5 5 4 4 4 3 3 4 5 5 5 4 5 4 5 5 4 4 4 4 4 2 1 2
1 1 1 2 2 2 4 4 4 3 2 2 3 3 4 4 4 3 4 5 6 5 4 4 4 3 3 4 4 4 4 6 5 5 4 4 4 4 4 4 4 4 4 3
3 2 1 2 2 1 1 2 3 3 2 2 3 4 4 5 4 3 3 4 5 4 4 4 4 3 4 4 5 3 3 4 6 5 4 5 4 5 5 4 4 4 4 4
3 5 5 6 5 3 1 1 1 2 2 2 3 4 4 5 4 3 3 3 3 3 2 3 4 4 4 4 4 3 3 3 3 4 4 4 4 4 4 4 4 4 3 3
1 2 2 3 4 4 2 1 1 1 1 2 3 3 4 4 4 3 3 4 4 3 3 3 5 5 4 4 4 3 4 3 3 3 3 3 3 3 3 3 3 3 3 2
1 1 2 2 2 3 2 1 1 1 1 2 3 3 2 2 3 3 4 3 3 4 4 4 5 4 4 4 4 3 4 4 3 3 2 3 3 3 3 3 3 3 3 2
0 1 3 3 2 1 2 2 2 1 1 2 3 3 2 1 2 3 4 2 2 1 3 5 4 3 3 3 4 3 3 3 3 3 3 3 3 3 3 3 3 3 3 2
1 2 3 3 2 1 0 1 2 2 2 2 2 2 2 2 2 2 1 3 3 3 3 3 3 4 4 4 3 3 3 3 3 3 3 3 3 3 2 2 2 2 2 2
1 2 3 3 3 2 1 1 1 2 2 2 2 2 2 1 1 2 1 2 1 3 2 2 3 4 5 4 3 3 3 3 3 3 3 3 3 3 3 3 3 2 2 2
2 1 2 2 3 3 2 1 1 1 2 1 1 2 2 2 1 0 1 1 1 2 2 3 3 4 4 3 3 3 3 3 3 3 3 3 3 3 3 3 2 2 2 3
2 2 3 3 3 2 1 1 2 2 2 2 1 1 0 1 2 1 0 1 1 1 1 2 3 3 3 3 3 3 3 3 3 3 3 3 3 3 3 3 3 2 2 3
2 2 1 2 2 2 2 2 1 1 1 1 1 1 0 1 1 1 1 1 1 1 0 1 1 2 2 2 3 3 3 3 3 2 3 3 3 3 2 2 2 3 2 2
1 1 1 0 0 1 2 2 1 1 1 1 1 1 1 1 1 1 1 1 1 0 0 0 1 2 2 2 2 2 2 2 2 3 3 2 2 2 2 2 2 2 2 2
Wind_Direction
215 216 196 211 213 197 184 184 190 218 210 224 212 199 193 177 166 162 165 168 173 179 184 184 185 187 188 191 188 183 179 184 191 189 183 176 171 171 169 166 167 166 157 154
228 223 213 230 224 213 212 198 201 205 232 233 213 183 178 175 168 172 178 182 182 181 180 183 188 190 189 191 189 179 181 189 187 179 179 179 175 167 161 163 163 158 163 161
228 259 56 251 221 204 204 203 186 205 225 208 179 185 185 180 180 185 188 187 185 185 186 189 190 186 185 187 177 172 178 182 181 180 181 183 173 163 167 170 162 161 167 161
175 114 225 243 230 194 199 221 202 198 206 195 194 195 189 182 183 190 188 184 185 187 187 187 183 180 181 174 171 175 177 179 179 180 183 178 170 176 178 169 165 166 169 170
150 189 257 280 243 185 180 237 223 197 205 199 178 121 242 206 187 188 188 186 188 189 184 178 177 175 169 172 176 179 184 187 187 183 181 177 179 183 178 169 170 172 172 173
149 172 223 242 248 189 136 239 244 196 189 182 135 149 232 218 182 182 181 179 180 177 167 169 179 169 167 177 181 189 193 193 189 183 183 185 186 182 173 170 178 174 177 184
170 201 248 254 253 124 166 226 222 191 181 169 176 195 205 177 166 167 168 169 162 158 166 179 175 165 172 180 195 199 189 182 182 184 185 185 181 176 170 168 165 173 180 190
163 193 242 268 146 173 211 217 185 180 173 166 170 165 156 155 155 147 147 149 146 150 162 170 165 165 174 193 198 178 168 170 177 179 180 174 166 170 169 164 166 175 178 191
190 215 254 255 202 215 168 154 169 166 171 153 145 150 149 155 154 150 148 148 146 146 148 159 169 171 182 196 170 157 160 169 174 172 173 165 166 167 162 167 173 180 180 196
238 269 291 299 335 19 134 153 181 164 163 150 150 154 150 150 150 148 147 147 143 141 145 160 173 176 182 172 159 158 164 171 170 168 169 165 166 168 168 174 179 182 185 197
243 267 337 322 313 313 28 78 96 112 149 160 148 149 155 158 158 158 156 153 148 156 165 173 171 169 161 154 152 160 167 170 171 173 173 172 174 179 182 192 188 186 198 195
225 233 211 251 269 278 45 79 133 121 125 143 145 149 150 157 160 153 152 150 150 156 163 170 166 162 158 157 155 157 164 171 175 173 170 168 166 158 182 186 189 191 191 190
219 240 231 258 278 298 293 201 147 136 149 152 145 142 145 149 154 147 143 148 161 166 165 162 157 161 164 162 159 162 168 172 171 171 171 171 171 174 184 309 213 204 205 204
213 145 311 296 288 319 36 89 93 99 116 136 136 129 130 128 131 143 161 169 152 142 143 147 148 160 167 160 160 165 167 170 169 174 176 178 182 184 184 186 209 259 246 226
243 176 203 268 5 39 65 88 87 86 87 95 120 122 125 131 150 171 169 142 125 127 140 144 146 163 159 151 153 158 161 169 170 169 173 175 174 175 182 189 197 213 246 264
206 72 99 95 98 78 80 97 107 111 106 106 124 133 138 143 144 144 141 140 138 155 167 157 162 173 153 150 151 157 170 170 163 164 168 169 171 177 184 192 199 206 216 221
164 185 181 170 149 120 107 121 142 141 127 128 149 145 127 114 103 107 133 153 158 167 169 166 172 163 153 150 151 158 160 167 162 161 174 179 182 189 192 194 203 212 221 215
188 191 188 181 177 171 153 90 109 129 155 172 141 129 129 135 149 171 178 154 128 117 150 171 157 144 143 146 148 152 156 162 166 170 176 180 185 190 191 196 203 207 216 211
185 164 167 176 171 163 162 154 150 140 134 137 133 137 154 166 172 168 153 140 150 176 221 186 151 141 145 153 142 144 150 156 161 169 173 175 175 179 182 190 197 202 201 193
92 128 142 135 119 127 137 147 131 121 157 142 132 131 133 156 161 149 140 160 203 210 199 173 154 151 159 162 146 145 153 158 163 170 171 172 177 185 190 192 192 191 192 196
112 123 126 134 124 121 141 153 153 167 194 151 151 162 170 175 147 143 138 172 261 224 165 162 155 157 161 157 150 150 156 161 165 171 176 180 181 185 189 193 192 189 189 189
203 151 150 142 131 125 122 137 156 165 146 123 128 134 129 122 110 100 156 201 219 190 163 167 169 165 158 143 147 151 162 170 174 174 177 181 183 187 190 190 190 190 188 187
149 148 142 140 145 141 86 91 117 137 140 136 137 134 137 158 162 152 227 266 217 177 163 170 171 158 149 146 154 162 173 179 182 183 183 183 186 189 193 195 195 190 190 194
103 122 132 127 116 108 97 38 46 81 101 105 127 139 136 122 54 330 205 205 125 154 162 170 158 154 148 153 162 172 181 186 190 189 188 187 183 182 189 195 198 200 202 205
132 131 128 126 128 148 161 107 66 60 66 62 56 66 108 149 169 224 41 122 87 82 136 165 163 161 160 164 173 184 193 195 192 187 186 185 185 185 189 193 197 202 206 209
149 151 160 175 181 177 158 134 122 83 83 60 9 358 44 91 115 128 113 111 116 78 73 201 181 171 172 177 183 188 190 193 191 186 182 182 184 185 186 187 192 200 202 207
141 141 132 83 12 157 154 156 162 183 183 168 224 266 214 154 135 146 150 145 153 168 215 228 182 173 175 174 172 172 175 180 177 173 170 170 175 181 181 174 179 185 183 186
Height
1511 1507 1508 1509 1509 1511 1516 1521 1528 1523 1519 1513 1509 1509 1509 1510 1512 1515 1517 1519 1521 1524 1527 1529 1532 1535 1537 1540 1543 1546 1548 1550 1552 1554 1556 1558 1559 1560 1561 1562 1563 1564 1564 1565
1508 1504 1505 1507 1505 1506 1508 1510 1514 1514 1513 1504 1504 1506 1507 1509 1511 1513 1515 1517 1519 1521 1524 1526 1529 1531 1534 1537 1540 1543 1545 1547 1549 1552 1553 1555 1557 1558 1559 1560 1561 1562 1562 1563
1516 1507 1507 1513 1503 1502 1504 1503 1506 1511 1507 1502 1504 1504 1504 1506 1508 1510 1512 1514 1516 1518 1521 1523 1525 1528 1531 1533 1537 1539 1542 1544 1546 1549 1550 1552 1554 1556 1557 1558 1559 1560 1560 1561
1516 1514 1523 1507 1492 1493 1497 1497 1497 1498 1498 1498 1499 1500 1501 1503 1505 1507 1509 1512 1514 1516 1518 1521 1523 1526 1528 1531 1534 1536 1538 1540 1543 1545 1547 1550 1551 1553 1554 1556 1557 1557 1558 1559
1518 1520 1513 1499 1490 1491 1495 1498 1493 1494 1494 1495 1497 1499 1501 1502 1502 1504 1506 1509 1511 1514 1516 1518 1520 1523 1526 1528 1530 1532 1534 1537 1539 1541 1544 1546 1548 1550 1551 1553 1554 1555 1556 1556
1514 1517 1517 1499 1486 1485 1491 1499 1490 1489 1491 1492 1495 1503 1501 1499 1501 1502 1505 1507 1509 1512 1514 1516 1518 1521 1523 1524 1527 1528 1530 1533 1536 1538 1540 1542 1545 1547 1548 1550 1551 1552 1553 1554
1510 1512 1504 1489 1483 1485 1501 1497 1487 1486 1487 1489 1491 1494 1495 1496 1498 1500 1502 1504 1507 1509 1511 1513 1516 1518 1519 1521 1522 1525 1527 1530 1533 1535 1537 1540 1542 1544 1545 1547 1548 1549 1550 1551
1507 1509 1504 1483 1483 1487 1487 1482 1483 1484 1485 1487 1488 1490 1492 1494 1496 1498 1500 1502 1504 1506 1509 1511 1513 1515 1516 1518 1520 1522 1524 1527 1529 1532 1534 1536 1539 1540 1542 1544 1545 1546 1547 1548
1496 1496 1485 1482 1482 1481 1481 1482 1482 1483 1484 1486 1487 1489 1491 1493 1495 1497 1499 1500 1502 1504 1506 1509 1511 1512 1513 1515 1517 1519 1522 1524 1526 1529 1531 1533 1535 1537 1539 1540 1542 1543 1544 1545
1490 1486 1483 1481 1480 1480 1480 1481 1481 1482 1483 1485 1486 1488 1490 1492 1494 1495 1497 1499 1500 1502 1504 1506 1508 1510 1511 1513 1515 1517 1518 1521 1523 1525 1527 1530 1532 1534 1535 1537 1538 1539 1540 1541
1489 1485 1483 1480 1480 1480 1480 1480 1480 1481 1482 1484 1485 1487 1489 1490 1492 1494 1495 1497 1499 1500 1502 1504 1505 1507 1509 1511 1512 1514 1516 1518 1520 1522 1524 1526 1528 1530 1532 1533 1535 1536 1537 1538
1487 1483 1483 1481 1480 1480 1479 1479 1479 1480 1481 1483 1484 1485 1487 1489 1490 1492 1494 1495 1497 1499 1500 1502 1503 1505 1507 1509 1510 1512 1513 1515 1517 1519 1521 1523 1525 1527 1529 1531 1532 1534 1535 1535
1479 1479 1479 1479 1478 1479 1478 1477 1477 1478 1480 1482 1483 1484 1486 1488 1489 1491 1492 1494 1495 1496 1498 1500 1501 1503 1504 1506 1508 1510 1511 1512 1514 1516 1517 1519 1521 1523 1525 1527 1529 1530 1531 1532
1477 1477 1477 1477 1477 1477 1477 1477 1477 1477 1479 1481 1482 1483 1485 1486 1488 1490 1491 1493 1494 1495 1497 1498 1500 1501 1502 1504 1506 1507 1509 1510 1511 1513 1514 1516 1518 1520 1521 1523 1524 1525 1527 1527
1475 1475 1476 1475 1475 1475 1476 1476 1476 1477 1478 1480 1481 1482 1483 1485 1486 1488 1490 1491 1493 1494 1495 1497 1498 1499 1501 1502 1503 1505 1506 1507 1508 1510 1512 1513 1515 1516 1518 1519 1520 1521 1522 1523
1473 1474 1474 1474 1474 1474 1475 1475 1476 1476 1477 1478 1480 1481 1482 1484 1485 1486 1488 1490 1491 1492 1493 1494 1496 1498 1499 1500 1501 1502 1504 1505 1506 1507 1509 1510 1511 1513 1514 1515 1516 1517 1518 1518
1471 1471 1472 1472 1472 1473 1474 1475 1475 1476 1476 1477 1479 1480 1481 1482 1483 1485 1486 1488 1489 1490 1492 1493 1494 1496 1497 1498 1499 1500 1501 1502 1503 1504 1505 1506 1508 1509 1510 1511 1512 1513 1513 1514
1469 1469 1470 1471 1471 1472 1473 1474 1475 1475 1476 1476 1477 1478 1479 1480 1481 1483 1484 1486 1487 1488 1490 1491 1492 1493 1494 1496 1497 1497 1498 1499 1500 1501 1502 1503 1504 1505 1506 1507 1508 1508 1509 1509
1466 1467 1468 1469 1469 1470 1471 1472 1473 1474 1474 1475 1475 1476 1477 1479 1480 1481 1482 1483 1484 1486 1487 1489 1490 1491 1492 1493 1494 1495 1496 1496 1497 1498 1499 1500 1501 1502 1502 1503 1504 1504 1504 1505
1463 1464 1465 1466 1467 1468 1469 1470 1471 1472 1473 1474 1474 1475 1476 1477 1478 1479 1480 1481 1482 1483 1485 1486 1487 1488 1489 1490 1491 1492 1493 1493 1494 1494 1495 1496 1497 1497 1498 1499 1499 1500 1500 1500
1460 1461 1462 1463 1464 1466 1467 1468 1469 1470 1471 1471 1472 1473 1473 1474 1475 1476 1477 1478 1479 1481 1482 1483 1484 1485 1486 1487 1488 1489 1489 1490 1490 1491 1492 1492 1493 1493 1494 1495 1495 1495 1496 1496
1458 1459 1460 1462 1463 1464 1465 1466 1467 1468 1469 1469 1470 1470 1471 1471 1472 1473 1474 1476 1476 1478 1478 1479 1480 1481 1482 1483 1484 1485 1486 1486 1487 1488 1488 1489 1489 1490 1490 1490 1491 1491 1491 1491
1457 1458 1459 1460 1461 1462 1463 1464 1464 1465 1466 1466 1467 1467 1468 1469 1470 1470 1471 1472 1473 1474 1475 1476 1477 1478 1479 1479 1480 1480 1481 1482 1483 1483 1484 1484 1485 1485 1486 1486 1486 1487 1487 1487
1455 1457 1458 1459 1460 1461 1461 1462 1462 1463 1464 1464 1465 1465 1466 1466 1467 1468 1468 1469 1469 1470 1471 1472 1473 1474 1475 1475 1476 1476 1477 1478 1478 1479 1480 1480 1481 1481 1481 1482 1482 1482 1482 1482
1454 1455 1456 1457 1458 1459 1459 1460 1460 1460 1461 1461 1462 1463 1464 1464 1464 1464 1465 1466 1466 1467 1467 1468 1469 1470 1471 1471 1472 1472 1473 1473 1474 1475 1475 1476 1476 1477 1477 1477 1477 1478 1478 1478
1452 1453 1454 1456 1456 1457 1457 1458 1458 1458 1458 1458 1459 1460 1460 1461 1461 1462 1462 1462 1463 1463 1464 1464 1465 1466 1466 1467 1468 1468 1469 1469 1470 1471 1471 1472 1472 1473 1473 1473 1473 1473 1473 1473
1451 1452 1453 1453 1454 1455 1455 1455 1455 1455 1456 1456 1456 1457 1457 1457 1458 1458 1459 1459 1459 1459 1460 1461 1461 1462 1462 1463 1464 1464 1465 1465 1466 1467 1467 1468 1468 1468 1468 1469 1469 1469 1469 1469